Location: Newark
(43.0000°N, 1.6781°W)
Time: 20:30:19
(UTC+00:00)

Courier 1B Rocket - Pass Details

Date: 23 April 2021
Orbit: 920 x 1202 km, 28.3° (Epoch: 13 May)

Event Time Altitude Azimuth Distance (km) Brightness Sun altitude
Rises 21:26:42 0° 250° (WSW) 3,711 8.3 -23.5°
Reaches altitude 10° 21:30:00 10° 235° (SW) 2,810 7.5 -23.9°
Enters shadow 21:33:46 20° 202° (SSW) 2,212 6.6 -24.3°
